Weather History for LEMH - November, 2012

Change the Weather History Date:

Tuesday, November 27, 2012

  Actual Average Record
Temperature  
Mean Temperature 58 °F -  
Max Temperature 62 °F 57 °F 69 °F (2000)
Min Temperature 51 °F 48 °F 41 °F (2013)
Degree Days  
Heating Degree Days 8    
Growing Degree Days 8 (Base 50)    
Moisture  
Dew Point 55 °F    
Average Humidity 90    
Maximum Humidity 100    
Minimum Humidity 72    
Precipitation  
Precipitation 0.12 in 0.10 in - ()
Sea Level Pressure  
Sea Level Pressure 29.58 in    
Wind  
Wind Speed 5 mph ()    
Max Wind Speed 26 mph    
Max Gust Speed 41 mph    
Visibility 5.9 miles    
Events Rain , Thunderstorm    
Averages and records for this station are not official NWS values.
T = Trace of Precipitation, MM = Missing Value Source: Averaged Metar Reports

Daily Weather History Graph

Daily Weather History Graph

Search for Another Location

Airport or City:

Trip Planner

Search our weather history database for the weather conditions in past years. The results will help you decide how hot, cold, wet, or windy it might be!

Date:

Astronomy

Nov. 27, 2012 Rise Set
Actual Time 7:41 AM CET 5:19 PM CET
Civil Twilight 7:11 AM CET 5:49 PM CET
Nautical Twilight 6:38 AM CET 6:23 PM CET
Astronomical Twilight 6:05 AM CET 6:55 PM CET
Moon 4:40 PM CET (11/27) 6:32 AM CET (11/27)
Length of Visible Light 10h 37m
Length of Day
9h 38m
Waxing Gibbous, 99% of the Moon is Illuminated
Nov 27
Waxing Gibbous
Nov 28
Full
Dec 6
Last Quarter
Dec 13
New
Dec 20
First Quarter

Hourly Weather History & Observations

Time (CET) Temp. Dew Point Humidity Pressure Visibility Wind Dir Wind Speed Gust Speed Precip Events Conditions
1:00 AM 61 °F 58 °F 85% 29.80 in 7 mi SW 4.6 mph - -   Scattered Clouds
1:00 AM 60.8 °F 57.2 °F 88% 29.80 in 6.2 mi SW 4.6 mph - N/A   Partly Cloudy
5:00 AM 59.0 °F 57.2 °F 94% 29.68 in 6.2 mi ESE 3.5 mph - N/A   Scattered Clouds
5:30 AM 59.0 °F 57.2 °F 94% 29.68 in 6.2 mi SE 3.5 mph - N/A   Partly Cloudy
6:00 AM 59.0 °F 57.2 °F 94% 29.65 in 6.2 mi ESE 3.5 mph - N/A   Partly Cloudy
6:30 AM 57.2 °F 55.4 °F 94% 29.65 in 6.2 mi Calm Calm - N/A   Partly Cloudy
7:00 AM 57 °F 55 °F 90% 29.65 in 9 mi Calm Calm - -   Scattered Clouds
7:00 AM 57.2 °F 53.6 °F 88% 29.65 in 6.2 mi Calm Calm - N/A   Partly Cloudy
7:30 AM 57.2 °F 55.4 °F 94% 29.65 in 6.2 mi Variable 1.2 mph - N/A   Partly Cloudy
8:00 AM 55.4 °F 55.4 °F 100% 29.65 in 6.2 mi Calm Calm - N/A   Partly Cloudy
8:30 AM 59.0 °F 57.2 °F 94% 29.65 in 5.6 mi West 3.5 mph - N/A Rain , Thunderstorm Rain Showers
9:00 AM 59.0 °F 57.2 °F 94% 29.62 in 6.2 mi Variable 2.3 mph - N/A Rain Light Rain
9:30 AM 60.8 °F 57.2 °F 88% 29.62 in 6.2 mi West 5.8 mph - N/A   Partly Cloudy
10:00 AM 60.8 °F 57.2 °F 88% 29.62 in 6.2 mi West 5.8 mph - N/A   Partly Cloudy
10:30 AM 60.8 °F 57.2 °F 88% 29.62 in 6.2 mi WNW 4.6 mph - N/A   Partly Cloudy
11:00 AM 62.6 °F 55.4 °F 77% 29.62 in 6.2 mi West 6.9 mph - N/A   Partly Cloudy
11:30 AM 62.6 °F 53.6 °F 72% 29.62 in 6.2 mi West 3.5 mph - N/A   Partly Cloudy
12:00 PM 60.8 °F 55.4 °F 82% 29.59 in 6.2 mi Variable 1.2 mph - N/A   Partly Cloudy
12:30 PM 60.8 °F 55.4 °F 82% 29.59 in 6.2 mi Variable 2.3 mph - N/A Rain Light Rain
1:00 PM 60 °F 57 °F 88% 29.57 in 9 mi NNW 5.8 mph - - Rain Light Rain
1:00 PM 59.0 °F 57.2 °F 94% 29.56 in 6.2 mi NNW 4.6 mph - N/A Rain Light Rain
1:30 PM 59.0 °F 57.2 °F 94% 29.56 in 3.7 mi NNW 3.5 mph - N/A Rain Light Rain
2:00 PM 59.0 °F 57.2 °F 94% 29.56 in 3.1 mi NNW 3.5 mph - N/A Rain Rain
2:30 PM 59.0 °F 59.0 °F 100% 29.53 in 4.3 mi NNE 10.4 mph - N/A Rain Light Rain
3:00 PM 57.2 °F 55.4 °F 94% 29.50 in 6.2 mi North 10.4 mph - N/A Rain Light Rain
3:30 PM 57.2 °F 55.4 °F 94% 29.53 in 6.2 mi NNW 10.4 mph - N/A   Scattered Clouds
4:00 PM 57.2 °F 55.4 °F 94% 29.53 in 6.2 mi NNW 8.1 mph - N/A   Scattered Clouds
4:30 PM 57.2 °F 55.4 °F 94% 29.53 in 6.2 mi Variable 2.3 mph - N/A   Scattered Clouds
5:00 PM 57.2 °F 55.4 °F 94% 29.53 in 6.2 mi Calm Calm - N/A   Scattered Clouds
5:30 PM 55.4 °F 53.6 °F 94% 29.50 in 6.2 mi Variable 1.2 mph - N/A   Scattered Clouds
6:00 PM 57.2 °F 53.6 °F 88% 29.50 in 6.2 mi SSW 6.9 mph - N/A   Scattered Clouds
6:30 PM 57.2 °F 53.6 °F 88% 29.50 in 6.2 mi SSW 10.4 mph - N/A   Scattered Clouds
6:51 PM 55.4 °F 51.8 °F 88% 29.50 in 3.1 mi West 17.3 mph 29.9 mph N/A Rain Heavy Rain Showers
7:00 PM 55 °F 51 °F 84% 29.52 in 6 mi West 9.2 mph - - Rain Heavy Rain Showers
7:00 PM 53.6 °F 51.8 °F 94% 29.50 in 4.3 mi WSW 6.9 mph - N/A Rain Rain Showers
7:30 PM 55.4 °F 53.6 °F 94% 29.50 in 6.2 mi WSW 9.2 mph - N/A   Scattered Clouds
7:46 PM 57.2 °F 53.6 °F 88% 29.50 in 4.3 mi SW 12.7 mph - N/A Rain Rain Showers
8:00 PM 57.2 °F 51.8 °F 82% 29.50 in 5.6 mi SW 12.7 mph - N/A Rain Light Rain
8:30 PM 55.4 °F 51.8 °F 88% 29.47 in 5.6 mi West 18.4 mph 31.1 mph N/A   Mostly Cloudy
9:00 PM 55.4 °F 51.8 °F 88% 29.47 in 5.6 mi WSW 23.0 mph 36.8 mph N/A Rain Light Rain
9:18 PM 53.6 °F 51.8 °F 94% 29.50 in 3.7 mi WSW 26.5 mph 39.1 mph N/A Rain Rain
9:30 PM 53.6 °F 51.8 °F 94% 29.47 in 5.0 mi WSW 24.2 mph 41.4 mph N/A Rain Light Rain
10:00 PM 51.8 °F 50.0 °F 94% 29.50 in 5.6 mi West 21.9 mph 35.7 mph N/A Rain Light Rain